Location: Dackenheim
(49.5215°N, 8.1854°E)
Time: 07:06:51
(UTC+00:00)

AO-85 - Pass Details

Date: 21 March 2026
Orbit: 507 x 686 km, 64.8° (Epoch: 14 April)

Event Time Altitude Azimuth Distance (km) Brightness Sun altitude
Exits shadow 03:29:24 33° 309° (NW) 888 ? -19.5°
Maximum altitude 03:29:42 34° 320° (NW) 878 ? -19.5°
Drops below altitude 10° 03:33:15 10° 26° (NNE) 1,737 ? -19.0°
Sets 03:35:33 0° 36° (NE) 2,621 ? -18.6°
